Time,TemperatureF,DewpointF,PressureIn,WindDirection,WindDirectionDegrees,WindSpeedMPH,WindSpeedGustMPH,Humidity,HourlyPrecipIn,Conditions,Clouds,dailyrainin,SolarRadiationWatts/m^2,SoftwareType,DateUTC
2013-01-23 00:02:00,52.0,35.0,-100.00,SSE,156,3.0,14.0,52,0.00,,,0.00,0.000000,,2013-01-23 08:02:00,
2013-01-23 00:12:00,52.0,35.0,-100.00,SSE,156,3.0,14.0,52,0.00,,,0.00,0.000000,,2013-01-23 08:12:00,
2013-01-23 00:22:00,52.0,35.0,-100.00,SSE,156,3.0,14.0,52,0.00,,,0.00,0.000000,,2013-01-23 08:22:00,
2013-01-23 00:53:00,50.0,38.0,-100.00,WNW,297,5.0,7.0,62,0.00,,,-99.99,0.000000,,2013-01-23 08:53:00,
2013-01-23 01:02:00,50.0,38.0,-100.00,WNW,297,5.0,7.0,62,0.00,,,-99.99,0.000000,,2013-01-23 09:02:00,
2013-01-23 01:12:00,50.0,38.0,-100.00,WNW,297,5.0,7.0,62,0.00,,,-99.99,0.000000,,2013-01-23 09:12:00,
2013-01-23 01:22:00,50.0,38.0,-100.00,WNW,297,5.0,7.0,62,0.00,,,-99.99,0.000000,,2013-01-23 09:22:00,
2013-01-23 01:53:00,50.0,38.0,-100.00,NNE,22,3.0,7.0,64,0.00,,,0.00,0.000000,,2013-01-23 09:53:00,
2013-01-23 02:02:00,50.0,38.0,-100.00,NNE,22,3.0,7.0,64,0.00,,,0.00,0.000000,,2013-01-23 10:02:00,
2013-01-23 02:12:00,50.0,38.0,-100.00,NNE,22,3.0,7.0,64,0.00,,,0.00,0.000000,,2013-01-23 10:12:00,
2013-01-23 02:22:00,50.0,38.0,-100.00,NNE,22,3.0,7.0,64,0.00,,,0.00,0.000000,,2013-01-23 10:22:00,
2013-01-23 02:53:00,51.0,37.0,-100.00,West,268,3.0,13.0,58,0.00,,,0.00,0.000000,,2013-01-23 10:53:00,
2013-01-23 03:02:00,51.0,37.0,-100.00,West,268,3.0,13.0,58,0.00,,,0.00,0.000000,,2013-01-23 11:02:00,
2013-01-23 03:12:00,51.0,37.0,-100.00,West,268,3.0,13.0,58,0.00,,,0.00,0.000000,,2013-01-23 11:12:00,
2013-01-23 03:22:00,51.0,37.0,-100.00,West,268,3.0,13.0,58,0.00,,,0.00,0.000000,,2013-01-23 11:22:00,
2013-01-23 03:53:00,53.0,38.0,-100.00,ENE,60,7.0,11.0,56,0.00,,,0.00,0.000000,,2013-01-23 11:53:00,
2013-01-23 04:03:00,53.0,38.0,-100.00,ENE,60,7.0,11.0,56,0.00,,,0.00,0.000000,,2013-01-23 12:03:00,
2013-01-23 04:12:00,53.0,38.0,-100.00,ENE,60,7.0,11.0,56,0.00,,,0.00,0.000000,,2013-01-23 12:12:00,
2013-01-23 04:22:00,53.0,38.0,-100.00,ENE,60,7.0,11.0,56,0.00,,,0.00,0.000000,,2013-01-23 12:22:00,
2013-01-23 04:53:00,49.0,39.0,-100.00,NW,321,2.0,11.0,68,0.00,,,0.00,0.000000,,2013-01-23 12:53:00,
2013-01-23 05:03:00,49.0,39.0,-100.00,NW,321,2.0,11.0,68,0.00,,,0.00,0.000000,,2013-01-23 13:03:00,
2013-01-23 05:12:00,49.0,39.0,-100.00,NW,321,2.0,11.0,68,0.00,,,0.00,0.000000,,2013-01-23 13:12:00,
2013-01-23 05:22:00,49.0,39.0,-100.00,NW,321,2.0,11.0,68,0.00,,,0.00,0.000000,,2013-01-23 13:22:00,
2013-01-23 05:53:00,49.0,39.0,-100.00,NNE,28,2.0,5.0,68,0.00,,,0.00,0.000000,,2013-01-23 13:53:00,
2013-01-23 06:02:00,49.0,39.0,-100.00,NNE,28,2.0,5.0,68,0.00,,,0.00,0.000000,,2013-01-23 14:02:00,
2013-01-23 06:12:00,49.0,39.0,-100.00,NNE,28,2.0,5.0,68,0.00,,,0.00,0.000000,,2013-01-23 14:12:00,
2013-01-23 06:23:00,49.0,39.0,-100.00,NNE,28,2.0,5.0,68,0.00,,,0.00,0.000000,,2013-01-23 14:23:00,
2013-01-23 06:53:00,51.0,39.0,-100.00,East,82,4.0,6.0,64,0.00,,,0.00,0.000000,,2013-01-23 14:53:00,
2013-01-23 07:02:00,51.0,39.0,-100.00,East,82,4.0,6.0,64,0.00,,,0.00,0.000000,,2013-01-23 15:02:00,
2013-01-23 07:12:00,51.0,39.0,-100.00,East,82,4.0,6.0,64,0.00,,,0.00,0.000000,,2013-01-23 15:12:00,
2013-01-23 07:22:00,51.0,39.0,-100.00,East,82,4.0,6.0,64,0.00,,,0.00,0.000000,,2013-01-23 15:22:00,
2013-01-23 07:53:00,49.0,42.0,-100.00,West,260,5.0,7.0,77,0.00,,,0.00,0.000000,,2013-01-23 15:53:00,
2013-01-23 08:03:00,49.0,42.0,-100.00,West,260,5.0,7.0,77,0.00,,,0.00,0.000000,,2013-01-23 16:03:00,
2013-01-23 08:12:00,49.0,42.0,-100.00,West,260,5.0,7.0,77,0.00,,,0.00,0.000000,,2013-01-23 16:12:00,
2013-01-23 08:22:00,49.0,42.0,-100.00,West,260,5.0,7.0,77,0.00,,,0.00,0.000000,,2013-01-23 16:22:00,
2013-01-23 08:53:00,48.0,42.0,-100.00,NW,314,5.0,7.0,81,0.00,,,0.00,11.000000,,2013-01-23 16:53:00,
2013-01-23 09:03:00,48.0,42.0,-100.00,NW,314,5.0,7.0,81,0.00,,,0.00,11.000000,,2013-01-23 17:03:00,
2013-01-23 09:12:00,48.0,42.0,-100.00,NW,314,5.0,7.0,81,0.00,,,0.00,11.000000,,2013-01-23 17:12:00,
2013-01-23 09:22:00,48.0,42.0,-100.00,NW,314,5.0,7.0,81,0.00,,,0.00,11.000000,,2013-01-23 17:22:00,
2013-01-23 09:53:00,51.0,42.0,-100.00,East,79,5.0,10.0,70,0.00,,,0.00,49.000000,,2013-01-23 17:53:00,
2013-01-23 10:03:00,51.0,42.0,-100.00,East,79,5.0,10.0,70,0.00,,,0.00,49.000000,,2013-01-23 18:03:00,
2013-01-23 10:12:00,51.0,42.0,-100.00,East,79,5.0,10.0,70,0.00,,,0.00,49.000000,,2013-01-23 18:12:00,
2013-01-23 10:23:00,51.0,42.0,-100.00,East,79,5.0,10.0,70,0.00,,,0.00,49.000000,,2013-01-23 18:23:00,
2013-01-23 10:53:00,50.0,44.0,-100.00,SE,124,2.0,7.0,80,0.00,,,0.00,84.000000,,2013-01-23 18:53:00,
2013-01-23 11:02:00,50.0,44.0,-100.00,SE,124,2.0,7.0,80,0.00,,,0.00,84.000000,,2013-01-23 19:02:00,
2013-01-23 11:12:00,50.0,44.0,-100.00,SE,124,2.0,7.0,80,0.00,,,0.00,84.000000,,2013-01-23 19:12:00,
2013-01-23 11:22:00,50.0,44.0,-100.00,SE,124,2.0,7.0,80,0.00,,,0.00,84.000000,,2013-01-23 19:22:00,
2013-01-23 11:53:00,52.0,42.0,-100.00,SE,138,4.0,8.0,69,0.00,,,0.00,66.000000,,2013-01-23 19:53:00,
2013-01-23 12:03:00,52.0,42.0,-100.00,SE,138,4.0,8.0,69,0.00,,,0.00,66.000000,,2013-01-23 20:03:00,
2013-01-23 12:12:00,52.0,42.0,-100.00,SE,138,4.0,8.0,69,0.00,,,0.00,66.000000,,2013-01-23 20:12:00,
2013-01-23 12:22:00,52.0,42.0,-100.00,SE,138,4.0,8.0,69,0.00,,,0.00,66.000000,,2013-01-23 20:22:00,
2013-01-23 12:53:00,51.0,46.0,-100.00,East,99,6.0,12.0,84,0.00,,,0.00,60.000000,,2013-01-23 20:53:00,
2013-01-23 13:02:00,51.0,46.0,-100.00,East,99,6.0,12.0,84,0.00,,,0.00,60.000000,,2013-01-23 21:02:00,
2013-01-23 13:12:00,51.0,46.0,-100.00,East,99,6.0,12.0,84,0.00,,,0.00,60.000000,,2013-01-23 21:12:00,
2013-01-23 13:22:00,51.0,46.0,-100.00,East,99,6.0,12.0,84,0.00,,,0.00,60.000000,,2013-01-23 21:22:00,
2013-01-23 13:53:00,51.0,45.0,-100.00,ENE,71,7.0,16.0,80,0.02,,,0.02,70.000000,,2013-01-23 21:53:00,
2013-01-23 14:02:00,51.0,45.0,-100.00,ENE,71,7.0,16.0,80,0.02,,,0.02,70.000000,,2013-01-23 22:02:00,
2013-01-23 14:12:00,51.0,45.0,-100.00,ENE,71,7.0,16.0,80,0.02,,,0.02,70.000000,,2013-01-23 22:12:00,
2013-01-23 14:22:00,51.0,45.0,-100.00,ENE,71,7.0,16.0,80,0.02,,,0.02,70.000000,,2013-01-23 22:22:00,
2013-01-23 15:03:00,48.0,48.0,-100.00,WNW,282,8.0,17.0,100,0.11,,,0.13,41.000000,,2013-01-23 23:03:00,
2013-01-23 15:12:00,48.0,48.0,-100.00,WNW,282,8.0,17.0,100,0.11,,,0.13,41.000000,,2013-01-23 23:12:00,
2013-01-23 15:22:00,48.0,48.0,-100.00,WNW,282,8.0,17.0,100,0.11,,,0.13,41.000000,,2013-01-23 23:22:00,
2013-01-23 15:53:00,48.0,48.0,-100.00,East,92,3.0,9.0,100,0.09,,,0.22,31.000000,,2013-01-23 23:53:00,
2013-01-23 16:03:00,48.0,48.0,-100.00,East,92,3.0,9.0,100,0.09,,,0.22,31.000000,,2013-01-24 00:03:00,
2013-01-23 16:12:00,48.0,48.0,-100.00,East,92,3.0,9.0,100,0.09,,,0.22,31.000000,,2013-01-24 00:12:00,
2013-01-23 16:22:00,48.0,48.0,-100.00,East,92,3.0,9.0,100,0.09,,,0.22,31.000000,,2013-01-24 00:22:00,
2013-01-23 16:53:00,48.0,48.0,-100.00,East,87,8.0,12.0,100,0.10,,,0.32,15.000000,,2013-01-24 00:53:00,
2013-01-23 17:02:00,48.0,48.0,-100.00,East,87,8.0,12.0,100,0.10,,,0.32,15.000000,,2013-01-24 01:02:00,
2013-01-23 17:12:00,48.0,48.0,-100.00,East,87,8.0,12.0,100,0.10,,,0.32,15.000000,,2013-01-24 01:12:00,
2013-01-23 17:22:00,48.0,48.0,-100.00,East,87,8.0,12.0,100,0.10,,,0.32,15.000000,,2013-01-24 01:22:00,
2013-01-23 17:52:00,48.0,48.0,-100.00,ENE,64,7.0,13.0,100,0.05,,,0.37,6.000000,,2013-01-24 01:52:00,
2013-01-23 18:02:00,48.0,48.0,-100.00,ENE,64,7.0,13.0,100,0.05,,,0.37,6.000000,,2013-01-24 02:02:00,
2013-01-23 18:12:00,48.0,48.0,-100.00,ENE,64,7.0,13.0,100,0.05,,,0.37,6.000000,,2013-01-24 02:12:00,
2013-01-23 18:22:00,48.0,48.0,-100.00,ENE,64,7.0,13.0,100,0.05,,,0.37,6.000000,,2013-01-24 02:22:00,
2013-01-23 19:02:00,49.0,49.0,-100.00,ENE,59,6.0,8.0,100,0.00,,,0.37,0.000000,,2013-01-24 03:02:00,
2013-01-23 19:12:00,49.0,49.0,-100.00,ENE,59,6.0,8.0,100,0.00,,,0.37,0.000000,,2013-01-24 03:12:00,
2013-01-23 19:22:00,49.0,49.0,-100.00,ENE,59,6.0,8.0,100,0.00,,,0.37,0.000000,,2013-01-24 03:22:00,
2013-01-23 19:53:00,50.0,50.0,-100.00,NNE,32,3.0,9.0,100,0.01,,,0.38,0.000000,,2013-01-24 03:53:00,
2013-01-23 20:02:00,50.0,50.0,-100.00,NNE,32,3.0,9.0,100,0.01,,,0.38,0.000000,,2013-01-24 04:02:00,
2013-01-23 20:12:00,50.0,50.0,-100.00,NNE,32,3.0,9.0,100,0.01,,,0.38,0.000000,,2013-01-24 04:12:00,
2013-01-23 20:22:00,50.0,50.0,-100.00,NNE,32,3.0,9.0,100,0.01,,,0.38,0.000000,,2013-01-24 04:22:00,
2013-01-23 20:53:00,51.0,51.0,-100.00,ESE,109,1.0,5.0,100,0.01,,,0.39,0.000000,,2013-01-24 04:53:00,
2013-01-23 21:03:00,51.0,51.0,-100.00,ESE,109,1.0,5.0,100,0.01,,,0.39,0.000000,,2013-01-24 05:03:00,
2013-01-23 21:12:00,51.0,51.0,-100.00,ESE,109,1.0,5.0,100,0.01,,,0.39,0.000000,,2013-01-24 05:12:00,
2013-01-23 21:22:00,51.0,51.0,-100.00,ESE,109,1.0,5.0,100,0.01,,,0.39,0.000000,,2013-01-24 05:22:00,
2013-01-23 21:53:00,48.0,48.0,-100.00,East,100,1.0,5.0,100,0.01,,,0.40,0.000000,,2013-01-24 05:53:00,
2013-01-23 22:02:00,48.0,48.0,-100.00,East,100,1.0,5.0,100,0.01,,,0.40,0.000000,,2013-01-24 06:02:00,
2013-01-23 22:12:00,48.0,48.0,-100.00,East,100,1.0,5.0,100,0.01,,,0.40,0.000000,,2013-01-24 06:12:00,
2013-01-23 22:22:00,48.0,48.0,-100.00,East,100,1.0,5.0,100,0.01,,,0.40,0.000000,,2013-01-24 06:22:00,
2013-01-23 22:52:00,49.0,49.0,-100.00,ENE,58,3.0,5.0,100,0.01,,,0.41,0.000000,,2013-01-24 06:52:00,
2013-01-23 23:02:00,49.0,49.0,-100.00,ENE,58,3.0,5.0,100,0.01,,,0.41,0.000000,,2013-01-24 07:02:00,
2013-01-23 23:12:00,49.0,49.0,-100.00,ENE,58,3.0,5.0,100,0.01,,,0.41,0.000000,,2013-01-24 07:12:00,
2013-01-23 23:22:00,49.0,49.0,-100.00,ENE,58,3.0,5.0,100,0.01,,,0.41,0.000000,,2013-01-24 07:22:00,
2013-01-23 23:53:00,48.0,48.0,-100.00,SSW,194,4.0,6.0,100,0.00,,,0.41,0.000000,,2013-01-24 07:53:00,